| time (UTC) | temp F | wind direction | speed MPH | gust MPH | rain 1hr in | rain 24hr in | rain mn in | humidity % | barometer mb |
| 20260506122017 | 50 | 0.0 | 0.0 | 0.00 | 0.00 | 0.00 | 87 | 1016.6 | |
| 20260506121017 | 50 | 0.0 | 0.0 | 0.00 | 0.00 | 0.00 | 86 | 1016.6 | |
| 20260506120020 | 50 | 0.0 | 0.0 | 0.00 | 0.00 | 0.00 | 86 | 1016.5 | |
| 20260506115017 | 50 | 0.0 | 0.0 | 0.00 | 0.00 | 0.00 | 86 | 1016.5 | |
| 20260506114039 | 50 | 0.0 | 0.0 | 0.00 | 0.00 | 0.00 | 86 | 1016.4 | |
| 20260506113017 | 50 | 0.0 | 0.0 | 0.00 | 0.00 | 0.00 | 87 | 1016.1 | |
| 20260506112017 | 50 | 0.0 | 2.0 | 0.00 | 0.00 | 0.00 | 87 | 1016.0 | |
| 20260506111017 | 50 | 0.0 | 1.0 | 0.00 | 0.00 | 0.00 | 87 | 1015.9 | |
| 20260506110100 | 50 | 0.0 | 0.0 | 0.00 | 0.00 | 0.00 | 87 | 1015.6 | |
| 20260506105017 | 50 | 0.0 | 0.0 | 0.00 | 0.00 | 0.00 | 87 | 1015.5 | |
| 20260506104017 | 50 | 0.0 | 0.0 | 0.00 | 0.00 | 0.00 | 87 | 1015.4 | |
| 20260506103017 | 50 | 0.0 | 0.0 | 0.00 | 0.00 | 0.00 | 86 | 1015.3 | |
| 20260506102019 | 50 | 0.0 | 0.0 | 0.00 | 0.00 | 0.00 | 86 | 1015.1 | |
| 20260506101017 | 50 | 0.0 | 0.0 | 0.00 | 0.00 | 0.00 | 85 | 1015.1 | |
| 20260506100017 | 51 | 0.0 | 0.0 | 0.00 | 0.00 | 0.00 | 85 | 1014.9 | |
| 20260506095017 | 51 | 0.0 | 0.0 | 0.00 | 0.00 | 0.00 | 85 | 1014.8 | |
| 20260506094017 | 51 | 0.0 | 0.0 | 0.00 | 0.00 | 0.00 | 85 | 1014.8 | |
| 20260506093017 | 51 | 0.0 | 0.0 | 0.00 | 0.00 | 0.00 | 84 | 1014.6 | |
| 20260506092037 | 51 | 0.0 | 0.0 | 0.00 | 0.00 | 0.00 | 84 | 1014.7 | |
| 20260506091017 | 52 | 0.0 | 0.0 | 0.00 | 0.00 | 0.00 | 84 | 1014.6 | |
| 20260506090017 | 52 | 0.0 | 0.0 | 0.00 | 0.00 | 0.00 | 83 | 1014.7 | |
| 20260506085018 | 52 | 0.0 | 0.0 | 0.00 | 0.00 | 0.00 | 83 | 1014.6 | |
| 20260506084039 | 52 | 0.0 | 0.0 | 0.00 | 0.00 | 0.00 | 83 | 1014.5 | |
| 20260506083017 | 53 | 0.0 | 0.0 | 0.00 | 0.00 | 0.00 | 82 | 1014.5 | |
| 20260506082017 | 53 | 0.0 | 0.0 | 0.00 | 0.00 | 0.00 | 82 | 1014.5 | |
| 20260506081017 | 53 | 0.0 | 0.0 | 0.00 | 0.00 | 0.00 | 82 | 1014.5 | |
| 20260506073017 | 54 | 0.0 | 0.0 | 0.00 | 0.00 | 0.00 | 79 | 1014.3 | |
| 20260506072017 | 55 | 0.0 | 0.0 | 0.00 | 0.00 | 0.00 | 79 | 1014.2 | |
| 20260506071017 | 55 | 0.0 | 3.0 | 0.00 | 0.00 | 0.00 | 78 | 1014.1 | |
| 20260506062037 | 56 | 0.0 | 0.0 | 0.00 | 0.00 | 0.00 | 75 | 1013.6 | |
| 20260506061017 | 56 | 0.0 | 0.0 | 0.00 | 0.00 | 0.00 | 74 | 1013.6 | |
| 20260506051017 | 59 | 0.0 | 2.0 | 0.00 | 0.00 | 0.00 | 68 | 1013.2 | |
| 20260506045037 | 60 | 0.0 | 7.0 | 0.00 | 0.00 | 0.00 | 66 | 1013.1 | |
| 20260506044017 | 60 | 0.0 | 7.0 | 0.00 | 0.00 | 0.00 | 65 | 1013.0 | |
| 20260506043017 | 61 | 0.0 | 3.0 | 0.00 | 0.00 | 0.00 | 65 | 1012.9 | |
| 20260506042017 | 61 | 203 | 1.0 | 4.0 | 0.00 | 0.00 | 0.00 | 64 | 1012.8 |
| 20260506041017 | 61 | 0.0 | 5.0 | 0.00 | 0.00 | 0.00 | 64 | 1012.8 | |
| 20260506040017 | 62 | 0.0 | 3.0 | 0.00 | 0.00 | 0.00 | 63 | 1012.7 | |
| 20260506035038 | 62 | 0.0 | 3.0 | 0.00 | 0.00 | 0.00 | 63 | 1012.6 | |
| 20260506034037 | 63 | 0.0 | 3.0 | 0.00 | 0.00 | 0.00 | 62 | 1012.5 | |
| 20260506033017 | 64 | 0.0 | 2.0 | 0.00 | 0.00 | 0.00 | 62 | 1012.4 | |
| 20260506032037 | 65 | 180 | 1.0 | 3.0 | 0.00 | 0.00 | 0.00 | 60 | 1012.4 |
| 20260506031017 | 66 | 0.0 | 3.0 | 0.00 | 0.00 | 0.00 | 58 | 1012.3 | |
| 20260506030100 | 66 | 0.0 | 1.0 | 0.00 | 0.00 | 0.00 | 58 | 1012.3 | |
| 20260506025018 | 67 | 0.0 | 5.0 | 0.00 | 0.00 | 0.00 | 57 | 1012.2 | |
| 20260506024016 | 67 | 0.0 | 3.0 | 0.00 | 0.00 | 0.00 | 56 | 1012.2 | |
| 20260506023017 | 68 | 0.0 | 5.0 | 0.00 | 0.00 | 0.00 | 55 | 1012.2 | |
| 20260506022057 | 69 | 0.0 | 3.0 | 0.00 | 0.00 | 0.00 | 54 | 1012.3 | |
| 20260506021017 | 69 | 158 | 1.0 | 4.0 | 0.00 | 0.00 | 0.00 | 53 | 1012.3 |
| 20260506020017 | 70 | 0.0 | 5.0 | 0.00 | 0.00 | 0.00 | 52 | 1012.3 | |
| 20260506015017 | 70 | 158 | 1.0 | 4.0 | 0.00 | 0.00 | 0.00 | 51 | 1012.3 |
| 20260506014018 | 71 | 0.0 | 2.0 | 0.00 | 0.00 | 0.00 | 50 | 1012.3 | |
| 20260506013017 | 72 | 180 | 1.0 | 4.0 | 0.00 | 0.00 | 0.00 | 49 | 1012.4 |
| 20260506012017 | 73 | 135 | 1.0 | 4.0 | 0.00 | 0.00 | 0.00 | 48 | 1012.3 |
| 20260506011017 | 74 | 158 | 1.0 | 3.0 | 0.00 | 0.00 | 0.00 | 46 | 1012.4 |
| 20260506010017 | 74 | 135 | 1.0 | 6.0 | 0.00 | 0.00 | 0.00 | 45 | 1012.5 |
| 20260506005017 | 75 | 203 | 1.0 | 6.0 | 0.00 | 0.00 | 0.00 | 44 | 1012.5 |
| 20260506004017 | 75 | 135 | 1.0 | 3.0 | 0.00 | 0.00 | 0.00 | 45 | 1012.5 |
| 20260506003040 | 75 | 158 | 1.0 | 4.0 | 0.00 | 0.00 | 0.00 | 45 | 1012.6 |
| 20260506002017 | 74 | 135 | 2.0 | 6.0 | 0.00 | 0.00 | 0.00 | 45 | 1012.7 |
| 20260506001037 | 74 | 135 | 2.0 | 5.0 | 0.00 | 0.00 | 0.00 | 46 | 1012.8 |
| 20260506000017 | 74 | 158 | 2.0 | 5.0 | 0.00 | 0.00 | 0.00 | 45 | 1012.9 |
| 20260505235016 | 74 | 135 | 3.0 | 6.0 | 0.00 | 0.00 | 0.00 | 47 | 1013.0 |
| 20260505234015 | 74 | 135 | 2.0 | 5.0 | 0.00 | 0.00 | 0.00 | 46 | 1013.1 |
| 20260505233015 | 73 | 135 | 2.0 | 6.0 | 0.00 | 0.00 | 0.00 | 49 | 1013.2 |
| 20260505232015 | 73 | 158 | 3.0 | 6.0 | 0.00 | 0.00 | 0.00 | 50 | 1013.2 |
| 20260505231015 | 73 | 135 | 2.0 | 7.0 | 0.00 | 0.00 | 0.00 | 51 | 1013.4 |
| 20260505230015 | 72 | 158 | 2.0 | 6.0 | 0.00 | 0.00 | 0.00 | 51 | 1013.6 |
| 20260505225015 | 72 | 135 | 2.0 | 6.0 | 0.00 | 0.00 | 0.00 | 52 | 1013.6 |
| 20260505224016 | 71 | 135 | 2.0 | 6.0 | 0.00 | 0.00 | 0.00 | 53 | 1013.7 |
| 20260505223015 | 71 | 135 | 3.0 | 6.0 | 0.00 | 0.00 | 0.00 | 53 | 1013.8 |
| 20260505222016 | 70 | 135 | 2.0 | 5.0 | 0.00 | 0.00 | 0.00 | 54 | 1013.9 |
| 20260505221015 | 70 | 135 | 3.0 | 6.0 | 0.00 | 0.00 | 0.00 | 54 | 1014.0 |
| 20260505220016 | 69 | 135 | 3.0 | 6.0 | 0.00 | 0.00 | 0.00 | 55 | 1014.1 |
| 20260505215015 | 69 | 158 | 2.0 | 6.0 | 0.00 | 0.00 | 0.00 | 56 | 1014.2 |
| 20260505214015 | 68 | 135 | 3.0 | 6.0 | 0.00 | 0.00 | 0.00 | 58 | 1014.2 |
| 20260505213036 | 67 | 135 | 3.0 | 7.0 | 0.00 | 0.00 | 0.00 | 59 | 1014.2 |
| 20260505212015 | 67 | 135 | 3.0 | 8.0 | 0.00 | 0.00 | 0.00 | 59 | 1014.4 |
| 20260505211038 | 66 | 135 | 2.0 | 6.0 | 0.00 | 0.00 | 0.00 | 61 | 1014.4 |
| 20260505210037 | 65 | 135 | 3.0 | 6.0 | 0.00 | 0.00 | 0.00 | 62 | 1014.5 |
| 20260505205015 | 65 | 135 | 2.0 | 6.0 | 0.00 | 0.00 | 0.00 | 63 | 1014.6 |
| 20260505204057 | 64 | 135 | 2.0 | 7.0 | 0.00 | 0.00 | 0.00 | 65 | 1014.6 |
| 20260505203015 | 63 | 135 | 3.0 | 6.0 | 0.00 | 0.00 | 0.00 | 66 | 1014.6 |
| 20260505202017 | 63 | 135 | 3.0 | 7.0 | 0.00 | 0.00 | 0.00 | 67 | 1014.7 |
| 20260505201017 | 62 | 135 | 3.0 | 8.0 | 0.00 | 0.00 | 0.00 | 67 | 1014.7 |
| 20260505200015 | 62 | 135 | 3.0 | 8.0 | 0.00 | 0.00 | 0.00 | 68 | 1014.7 |
| 20260505195017 | 62 | 158 | 3.0 | 5.0 | 0.00 | 0.00 | 0.00 | 68 | 1014.7 |
| 20260505194015 | 62 | 158 | 3.0 | 8.0 | 0.00 | 0.00 | 0.00 | 68 | 1014.7 |
| 20260505193016 | 62 | 135 | 3.0 | 7.0 | 0.00 | 0.00 | 0.00 | 68 | 1014.7 |
| 20260505192015 | 62 | 158 | 3.0 | 9.0 | 0.00 | 0.00 | 0.00 | 68 | 1014.8 |
| 20260505191015 | 62 | 158 | 4.0 | 8.0 | 0.00 | 0.00 | 0.00 | 67 | 1014.7 |
| 20260505190017 | 62 | 135 | 3.0 | 8.0 | 0.00 | 0.00 | 0.00 | 67 | 1014.7 |
| 20260505185015 | 62 | 135 | 3.0 | 7.0 | 0.00 | 0.00 | 0.00 | 66 | 1014.7 |
| 20260505184037 | 62 | 158 | 3.0 | 7.0 | 0.00 | 0.00 | 0.00 | 67 | 1014.6 |
| 20260505183017 | 62 | 158 | 3.0 | 7.0 | 0.00 | 0.00 | 0.00 | 67 | 1014.6 |
| 20260505182015 | 62 | 158 | 3.0 | 8.0 | 0.00 | 0.00 | 0.00 | 67 | 1014.6 |
| 20260505181036 | 62 | 158 | 3.0 | 7.0 | 0.00 | 0.00 | 0.00 | 67 | 1014.6 |
| 20260505180017 | 61 | 158 | 3.0 | 7.0 | 0.00 | 0.00 | 0.00 | 68 | 1014.5 |
| 20260505175019 | 61 | 135 | 4.0 | 11.0 | 0.00 | 0.00 | 0.00 | 69 | 1014.5 |
| 20260505174017 | 61 | 135 | 3.0 | 11.0 | 0.00 | 0.00 | 0.00 | 68 | 1014.5 |
| 20260505173057 | 61 | 135 | 3.0 | 8.0 | 0.00 | 0.00 | 0.00 | 68 | 1014.5 |
| 20260505172017 | 61 | 135 | 3.0 | 7.0 | 0.00 | 0.00 | 0.00 | 67 | 1014.4 |
| 20260505171018 | 61 | 158 | 2.0 | 8.0 | 0.00 | 0.00 | 0.00 | 69 | 1014.4 |
| 20260505170017 | 61 | 158 | 3.0 | 6.0 | 0.00 | 0.00 | 0.00 | 69 | 1014.3 |
| 20260505165017 | 61 | 135 | 3.0 | 6.0 | 0.00 | 0.00 | 0.00 | 69 | 1014.3 |
| 20260505164019 | 60 | 158 | 3.0 | 6.0 | 0.00 | 0.00 | 0.00 | 70 | 1014.2 |
| 20260505163017 | 60 | 158 | 2.0 | 5.0 | 0.00 | 0.00 | 0.00 | 70 | 1014.2 |
| 20260505162018 | 60 | 135 | 1.0 | 4.0 | 0.00 | 0.00 | 0.00 | 72 | 1014.1 |
| 20260505161020 | 59 | 135 | 2.0 | 5.0 | 0.00 | 0.00 | 0.00 | 72 | 1014.1 |
| 20260505153017 | 58 | 135 | 1.0 | 4.0 | 0.00 | 0.00 | 0.00 | 75 | 1013.8 |
| 20260505152017 | 57 | 135 | 2.0 | 4.0 | 0.00 | 0.00 | 0.00 | 76 | 1013.8 |
| 20260505151019 | 57 | 0.0 | 3.0 | 0.00 | 0.00 | 0.00 | 76 | 1013.6 | |
| 20260505125017 | 52 | 0.0 | 0.0 | 0.00 | 0.00 | 0.00 | 84 | 1012.0 | |
| 20260505124040 | 52 | 0.0 | 0.0 | 0.00 | 0.00 | 0.00 | 84 | 1011.9 | |
| 20260505123017 | 52 | 0.0 | 0.0 | 0.00 | 0.00 | 0.00 | 84 | 1011.9 |